Location: Edmonton
(53.5500°N, 113.5000°W)
Time: 09:46:28
(UTC-06:00)

Envisat - Visible Passes

Search period start: 17 October 2019 00:00
Search period end: 27 October 2019 00:00
Orbit: 764 x 766 km, 98.1° (Epoch: 17 October)

Date Brightness Start Highest point End Pass type
(mag) Time Alt. Az. Time Alt. Az. Time Alt. Az.
17 Oct 6.3 07:06:57 10° NE 07:09:42 14° E 07:12:25 10° ESE visible
17 Oct 4.3 20:05:49 10° S 20:10:38 43° W 20:15:30 10° NNW visible
18 Oct 3.1 19:28:39 10° SSE 19:33:44 82° WSW 19:38:52 10° NNW visible
18 Oct 6.0 21:10:46 10° WSW 21:13:36 15° W 21:16:25 10° NW visible
19 Oct 5.9 07:31:34 10° NE 07:35:34 23° E 07:39:32 10° SE visible
19 Oct 5.1 20:32:02 10° SSW 20:36:21 28° W 20:40:42 10° NNW visible
20 Oct 6.5 06:56:28 10° ENE 06:58:15 12° E 07:00:02 10° ESE visible
20 Oct 3.9 19:54:21 10° S 19:59:19 52° W 20:04:19 10° NNW visible
21 Oct 3.0 19:17:23 10° SSE 19:22:28 84° ENE 19:27:36 10° NNW visible
21 Oct 5.8 20:58:45 10° SW 21:02:10 18° W 21:05:36 10° NW visible
22 Oct 6.0 07:20:36 10° NE 07:24:10 19° E 07:27:42 10° SE visible
22 Oct 4.8 20:20:25 10° SSW 20:24:59 33° W 20:29:36 10° NNW visible
23 Oct 3.5 19:42:58 10° S 19:48:00 63° WSW 19:53:05 10° NNW visible
23 Oct 6.2 21:26:41 10° W 21:28:05 11° W 21:29:30 10° WNW visible
24 Oct 3.0 19:06:10 10° SSE 19:11:13 70° ENE 19:16:18 10° NNW visible
24 Oct 5.5 20:46:54 10° SW 20:50:46 22° W 20:54:39 10° NW visible
25 Oct 6.1 07:09:43 10° NE 07:12:44 16° E 07:15:44 10° ESE visible
25 Oct 4.4 20:08:52 10° SSW 20:13:38 40° W 20:18:26 10° NNW visible
26 Oct 3.2 19:31:38 10° S 19:36:43 77° WSW 19:41:50 10° NNW visible
26 Oct 6.1 21:14:07 10° WSW 21:16:38 14° W 21:19:10 10° NW visible
